This is the latest recevied weather packets stored in our database for station/object KI5RAB. If no packets are shown the sender has not sent any weather packets the latest 10 day(s).
| Time | Temp. | Humidity | Pressure | Rain* | Wind** | Luminosity | Snow |
|---|---|---|---|---|---|---|---|
| 1777849759 | 26.11° C | 41% | 1020.5 hPa | 0 mm | - | 192 W/m² | - |
| 1777849456 | 26.11° C | 40% | 1020.5 hPa | 0 mm | - | 212 W/m² | - |
| 1777849154 | 26.11° C | 40% | 1020.6 hPa | 0 mm | - | 211 W/m² | - |
| 1777848850 | 26.11° C | 39% | 1020.6 hPa | 0 mm | - | 232 W/m² | - |
| 1777848546 | 26.67° C | 41% | 1020.6 hPa | 0 mm | - | 250 W/m² | - |
| 1777848243 | 26.67° C | 39% | 1020.6 hPa | 0 mm | - | 267 W/m² | - |
| 1777847941 | 26.11° C | 40% | 1020.3 hPa | 0 mm | - | 280 W/m² | - |
| 1777847639 | 26.67° C | 40% | 1020.6 hPa | 0 mm | - | 286 W/m² | - |
| 1777847334 | 26.67° C | 39% | 1020.7 hPa | 0 mm | - | 302 W/m² | - |
| 1777847033 | 27.22° C | 38% | 1020.5 hPa | 0 mm | - | 322 W/m² | - |
| 1777846730 | 26.67° C | 39% | 1020.9 hPa | 0 mm | - | 340 W/m² | - |
| 1777846429 | 26.67° C | 39% | 1020.8 hPa | 0 mm | - | 361 W/m² | - |
| 1777846124 | 27.22° C | 40% | 1020.9 hPa | 0 mm | - | 379 W/m² | - |
| 1777845822 | 26.67° C | 39% | 1021.1 hPa | 0 mm | - | 426 W/m² | - |
| 1777845518 | 27.22° C | 39% | 1021.3 hPa | 0 mm | - | 199 W/m² | - |
| 1777845215 | 27.22° C | 38% | 1021.3 hPa | 0 mm | - | 451 W/m² | - |
| 1777844912 | 26.11° C | 42% | 1021.4 hPa | 0 mm | - | 433 W/m² | - |
| 1777844610 | 26.67° C | 39% | 1021.6 hPa | 0 mm | - | 400 W/m² | - |
| 1777844302 | 26.67° C | 38% | 1021.8 hPa | 0 mm | - | 474 W/m² | - |
| 1777844000 | 27.78° C | 37% | 1021.7 hPa | 0 mm | - | 371 W/m² | - |
| 1777843696 | 26.67° C | 35% | 1021.8 hPa | 0 mm | - | 492 W/m² | - |
| 1777843394 | 26.11° C | 37% | 1021.9 hPa | 0 mm | - | 499 W/m² | - |
| 1777843091 | 26.67° C | 34% | 1022.1 hPa | 0 mm | - | 509 W/m² | - |
| 1777842788 | 26.67° C | 34% | 1022.1 hPa | 0 mm | - | 522 W/m² | - |
| 1777842487 | 26.67° C | 36% | 1022.1 hPa | 0 mm | - | 540 W/m² | - |
* Rain latest hour (hover to see other rain measurements)
** Current wind speed in m/s (hover to see current wind gust speed)